Location: Unspecified
(48.3752°N, 0.0000°E)
Time: 20:36:30
(UTC+00:00)

SOZ - Visible Passes

Search period start: 04 April 2026 00:00
Search period end: 14 April 2026 00:00
Orbit: 769 x 827 km, 66.6° (Epoch: 29 March)

Date Brightness Start Highest point End Pass type
(mag) Time Alt. Az. Time Alt. Az. Time Alt. Az.
4 Apr 10.6 00:55:01 10° NNW 00:57:08 12° N 00:59:16 10° NNE visible
4 Apr 10.4 02:39:53 10° NNW 02:43:16 16° NNE 02:46:39 10° ENE visible
4 Apr 9.0 04:23:02 10° NNW 04:28:24 43° NE 04:33:43 10° ESE visible
4 Apr 9.1 19:12:29 10° SE 19:15:28 15° ESE 19:18:29 10° ENE visible
4 Apr 7.5 20:52:43 10° SSW 20:58:14 83° ESE 21:03:51 10° NE visible
4 Apr 9.6 22:37:57 10° W 22:42:33 26° NW 22:47:12 10° NNE visible
5 Apr 10.6 00:25:54 10° NW 00:28:14 12° N 00:30:35 10° NNE visible
5 Apr 10.5 02:11:22 10° NNW 02:14:24 15° NNE 02:17:27 10° NE visible
5 Apr 9.3 03:54:32 10° NNW 03:59:44 36° NE 04:04:53 10° ESE visible
5 Apr 7.5 20:24:16 10° SSW 20:29:43 67° ESE 20:35:17 10° NE visible
5 Apr 9.4 22:08:57 10° W 22:13:49 30° NW 22:18:44 10° NNE visible
5 Apr 10.6 23:56:43 10° NW 23:59:21 13° NNW 00:01:59 10° NNE visible
6 Apr 10.6 01:42:50 10° NNW 01:45:32 13° NNE 01:48:15 10° NE visible
6 Apr 9.6 03:26:04 10° NNW 03:31:02 31° NE 03:35:58 10° E visible
6 Apr 7.7 19:55:53 10° SSW 20:01:13 53° ESE 20:06:39 10° NE visible
6 Apr 9.2 21:40:02 10° WSW 21:45:06 35° NW 21:50:15 10° NNE visible
6 Apr 10.5 23:27:31 10° NW 23:30:28 14° NNW 23:33:26 10° NNE visible
7 Apr 10.7 01:14:14 10° NNW 01:16:39 13° N 01:19:04 10° NE visible
7 Apr 9.8 02:57:35 10° NNW 03:02:18 27° NE 03:07:00 10° E visible
7 Apr 7.6 04:40:56 10° NW 04:46:35 80° WSW 04:52:09 10° SSE visible
7 Apr 8.0 19:27:37 10° S 19:32:45 42° ESE 19:38:00 10° NE visible
7 Apr 8.9 21:11:11 10° WSW 21:16:26 42° NW 21:21:45 10° NNE visible
7 Apr 10.4 22:58:19 10° WNW 23:01:36 16° NNW 23:04:55 10° NNE visible
8 Apr 10.7 00:45:34 10° NNW 00:47:45 12° N 00:49:55 10° NNE visible
8 Apr 10.0 02:29:06 10° NNW 02:33:33 23° NNE 02:37:59 10° E visible
8 Apr 7.8 04:12:23 10° NW 04:18:02 83° NE 04:23:37 10° SE visible
8 Apr 8.5 20:42:25 10° WSW 20:47:47 50° NW 20:53:15 10° NNE visible
8 Apr 10.4 22:29:09 10° WNW 22:32:46 17° NNW 22:36:25 10° NNE visible
9 Apr 10.8 00:16:49 10° NNW 00:18:50 12° N 00:20:53 10° NNE visible
9 Apr 10.2 02:00:38 10° NNW 02:04:47 20° NNE 02:08:54 10° ENE visible
9 Apr 8.0 03:43:50 10° NNW 03:49:28 68° NE 03:55:01 10° SE visible
9 Apr 8.2 20:13:41 10° SW 20:19:10 62° NW 20:24:45 10° NNE visible
9 Apr 10.2 22:00:00 10° WNW 22:03:57 19° NNW 22:07:56 10° NNE visible
9 Apr 10.8 23:47:56 10° NNW 23:49:56 12° N 23:51:56 10° NNE visible
10 Apr 10.3 01:32:09 10° NNW 01:35:58 18° NNE 01:39:46 10° ENE visible
10 Apr 8.4 03:15:19 10° NNW 03:20:52 55° NE 03:26:20 10° SE visible
10 Apr 7.9 19:45:03 10° SW 19:50:35 76° NW 19:56:13 10° NNE visible
10 Apr 10.1 21:30:53 10° W 21:35:09 22° NNW 21:39:27 10° NNE visible
10 Apr 10.8 23:18:56 10° NNW 23:21:01 12° N 23:23:07 10° NNE visible
11 Apr 10.4 01:03:39 10° NNW 01:07:08 16° NNE 01:10:36 10° ENE visible
11 Apr 8.7 02:46:48 10° NNW 02:52:13 45° NE 02:57:34 10° ESE visible
11 Apr 8.1 04:30:40 10° NW 04:35:48 38° WSW 04:40:53 10° S visible
11 Apr 7.7 19:16:29 10° SSW 19:22:01 88° SE 19:27:39 10° NE visible
11 Apr 9.9 21:01:50 10° W 21:06:23 25° NW 21:10:59 10° NNE visible
11 Apr 10.7 22:49:50 10° NNW 22:52:07 12° N 22:54:25 10° NNE visible
12 Apr 10.5 00:35:09 10° NNW 00:38:17 15° NNE 00:41:24 10° NE visible
12 Apr 9.1 02:18:19 10° NNW 02:23:33 38° NE 02:28:45 10° ESE visible
12 Apr 7.8 04:01:58 10° NW 04:07:21 48° WSW 04:12:40 10° S visible
12 Apr 9.7 20:32:51 10° W 20:37:39 29° NW 20:42:30 10° NNE visible
12 Apr 10.6 22:20:40 10° NW 22:23:13 13° NNW 22:25:47 10° NNE visible
13 Apr 10.6 00:06:37 10° NNW 00:09:25 14° NNE 00:12:12 10° NE visible
13 Apr 9.3 01:49:50 10° NNW 01:54:52 32° NE 01:59:51 10° ESE visible
13 Apr 7.6 03:33:20 10° NW 03:38:52 61° WSW 03:44:19 10° SSE visible
13 Apr 9.5 20:03:55 10° WSW 20:08:56 34° NW 20:14:01 10° NNE visible
13 Apr 10.6 21:51:28 10° NW 21:54:20 14° NNW 21:57:13 10° NNE visible
13 Apr 10.6 23:38:02 10° NNW 23:40:31 13° N 23:43:00 10° NE visible
